| time (UTC) | temp F | wind direction | speed MPH | gust MPH | rain 1hr in | rain 24hr in | rain mn in | humidity % | barometer mb |
| 20260502130211 | 53 | 211 | 0.0 | 2.0 | 0.00 | 0.76 | 0.00 | 98 | 1020.7 |
| 20260502123603 | 50 | 208 | 0.0 | 2.0 | 0.00 | 0.84 | 0.00 | 98 | 1020.5 |
| 20260502122703 | 49 | 218 | 0.0 | 2.0 | 0.00 | 0.87 | 0.00 | 99 | 1020.3 |
| 20260502121803 | 49 | 225 | 0.0 | 2.0 | 0.00 | 0.90 | 0.00 | 99 | 1020.2 |
| 20260502120904 | 48 | 227 | 0.0 | 2.0 | 0.00 | 0.92 | 0.00 | 99 | 1020.0 |
| 20260502115611 | 49 | 223 | 0.0 | 2.0 | 0.00 | 0.96 | 0.00 | 99 | 1019.6 |
| 20260502114711 | 49 | 230 | 0.0 | 2.0 | 0.00 | 0.98 | 0.00 | 99 | 1019.5 |
| 20260502113603 | 48 | 245 | 0.0 | 1.0 | 0.00 | 1.00 | 0.00 | 99 | 1019.4 |
| 20260502112704 | 48 | 188 | 0.0 | 2.0 | 0.00 | 1.04 | 0.00 | 99 | 1019.4 |
| 20260502112011 | 49 | 179 | 0.0 | 2.0 | 0.00 | 1.06 | 0.00 | 99 | 1019.3 |
| 20260502110904 | 49 | 198 | 0.0 | 2.0 | 0.00 | 1.10 | 0.00 | 99 | 1019.4 |
| 20260502110004 | 49 | 203 | 0.0 | 2.0 | 0.00 | 1.13 | 0.00 | 99 | 1019.1 |
| 20260502105404 | 49 | 201 | 0.0 | 1.0 | 0.00 | 1.15 | 0.00 | 99 | 1019.1 |
| 20260502104503 | 49 | 206 | 0.0 | 1.0 | 0.00 | 1.17 | 0.00 | 99 | 1019.0 |
| 20260502103603 | 49 | 241 | 0.0 | 2.0 | 0.00 | 1.18 | 0.00 | 99 | 1018.9 |
| 20260502102703 | 49 | 224 | 0.0 | 2.0 | 0.00 | 1.19 | 0.00 | 99 | 1018.6 |
| 20260502101803 | 49 | 191 | 0.0 | 1.0 | 0.00 | 1.19 | 0.00 | 99 | 1018.8 |
| 20260502100903 | 49 | 139 | 0.0 | 1.0 | 0.00 | 1.20 | 0.00 | 99 | 1018.7 |
| 20260502090903 | 50 | 225 | 0.0 | 1.0 | 0.00 | 1.30 | 0.00 | 99 | 1018.4 |
| 20260502070904 | 51 | 173 | 0.0 | 1.0 | 0.00 | 1.38 | 0.00 | 99 | 1017.6 |
| 20260502070004 | 51 | 189 | 0.0 | 1.0 | 0.00 | 1.38 | 0.00 | 99 | 1017.5 |
| 20260502065403 | 50 | 138 | 0.0 | 1.0 | 0.00 | 1.38 | 0.00 | 99 | 1017.6 |
| 20260502064711 | 50 | 138 | 0.0 | 1.0 | 0.00 | 1.39 | 0.00 | 99 | 1017.8 |
| 20260502063603 | 50 | 242 | 0.0 | 1.0 | 0.00 | 1.40 | 0.00 | 99 | 1017.8 |
| 20260502062704 | 50 | 159 | 0.0 | 1.0 | 0.00 | 1.41 | 0.00 | 99 | 1017.7 |
| 20260502061803 | 50 | 162 | 0.0 | 1.0 | 0.00 | 1.42 | 0.00 | 99 | 1017.8 |
| 20260502060903 | 50 | 196 | 0.0 | 1.0 | 0.00 | 1.43 | 0.00 | 99 | 1017.9 |
| 20260502060004 | 51 | 202 | 0.0 | 1.0 | 0.00 | 1.44 | 0.00 | 99 | 1017.9 |
| 20260502055611 | 51 | 146 | 0.0 | 1.0 | 0.00 | 1.44 | 0.00 | 99 | 1018.0 |
| 20260502054504 | 51 | 205 | 0.0 | 1.0 | 0.00 | 1.45 | 0.00 | 99 | 1018.0 |
| 20260502053604 | 52 | 0 | 0.0 | 0.0 | 0.00 | 1.46 | 0.00 | 99 | 1017.7 |
| 20260502052703 | 52 | 94 | 0.0 | 1.0 | 0.00 | 1.48 | 0.00 | 99 | 1017.9 |
| 20260502051803 | 52 | 122 | 0.0 | 1.0 | 0.00 | 1.50 | 0.00 | 99 | 1018.1 |
| 20260502051111 | 52 | 112 | 0.0 | 1.0 | 0.00 | 1.51 | 0.00 | 99 | 1017.9 |
| 20260502050009 | 52 | 87 | 0.0 | 1.0 | 0.00 | 1.52 | 0.00 | 99 | 1018.0 |
| 20260502045611 | 52 | 0 | 0.0 | 0.0 | 0.00 | 1.52 | 1.52 | 99 | 1018.2 |
| 20260502044504 | 52 | 116 | 0.0 | 1.0 | 0.00 | 1.52 | 1.52 | 99 | 1018.2 |
| 20260502043603 | 52 | 94 | 0.0 | 1.0 | 0.00 | 1.53 | 1.52 | 98 | 1018.2 |
| 20260502042703 | 52 | 65 | 0.0 | 1.0 | 0.00 | 1.53 | 1.52 | 98 | 1018.4 |
| 20260502042011 | 52 | 133 | 0.0 | 1.0 | 0.00 | 1.53 | 1.52 | 98 | 1018.4 |
| 20260502040903 | 52 | 0 | 0.0 | 0.0 | 0.00 | 1.53 | 1.52 | 98 | 1018.2 |
| 20260502040004 | 52 | 44 | 0.0 | 1.0 | 0.00 | 1.53 | 1.52 | 98 | 1018.3 |
| 20260502035611 | 52 | 44 | 0.0 | 1.0 | 0.00 | 1.53 | 1.52 | 98 | 1018.3 |
| 20260502034711 | 52 | 103 | 0.0 | 2.0 | 0.00 | 1.53 | 1.52 | 97 | 1018.2 |
| 20260502033603 | 52 | 76 | 0.0 | 2.0 | 0.00 | 1.53 | 1.52 | 97 | 1018.4 |
| 20260502032703 | 52 | 64 | 1.0 | 5.0 | 0.00 | 1.53 | 1.52 | 97 | 1018.0 |
| 20260502031804 | 52 | 50 | 1.0 | 8.0 | 0.00 | 1.53 | 1.52 | 97 | 1017.9 |
| 20260502030904 | 52 | 68 | 1.0 | 8.0 | 0.00 | 1.53 | 1.52 | 97 | 1017.1 |
| 20260502030003 | 52 | 63 | 3.0 | 8.0 | 0.00 | 1.53 | 1.52 | 97 | 1016.9 |
| 20260502025403 | 52 | 64 | 3.0 | 6.0 | 0.00 | 1.53 | 1.52 | 98 | 1017.2 |
| 20260502024504 | 52 | 67 | 2.0 | 5.0 | 0.01 | 1.53 | 1.52 | 98 | 1017.7 |
| 20260502023603 | 53 | 57 | 1.0 | 5.0 | 0.01 | 1.53 | 1.52 | 99 | 1017.8 |
| 20260502022703 | 53 | 61 | 1.0 | 5.0 | 0.02 | 1.54 | 1.52 | 98 | 1017.7 |
| 20260502021803 | 53 | 68 | 2.0 | 6.0 | 0.04 | 1.56 | 1.52 | 99 | 1017.5 |
| 20260502021111 | 53 | 68 | 2.0 | 6.0 | 0.04 | 1.56 | 1.52 | 99 | 1016.7 |
| 20260502020004 | 53 | 71 | 3.0 | 10.0 | 0.05 | 1.55 | 1.52 | 99 | 1016.1 |
| 20260502015403 | 53 | 75 | 3.0 | 9.0 | 0.06 | 1.55 | 1.52 | 99 | 1016.3 |
| 20260502014503 | 54 | 65 | 2.0 | 6.0 | 0.07 | 1.55 | 1.52 | 99 | 1016.3 |
| 20260502013811 | 54 | 62 | 1.0 | 4.0 | 0.08 | 1.55 | 1.52 | 99 | 1016.4 |
| 20260502012703 | 54 | 70 | 1.0 | 3.0 | 0.06 | 1.53 | 1.50 | 99 | 1016.4 |
| 20260502011803 | 54 | 63 | 0.0 | 4.0 | 0.06 | 1.52 | 1.49 | 99 | 1016.2 |
| 20260502010904 | 54 | 11 | 0.0 | 4.0 | 0.05 | 1.51 | 1.48 | 99 | 1016.6 |
| 20260502010211 | 54 | 55 | 1.0 | 3.0 | 0.04 | 1.50 | 1.47 | 99 | 1016.4 |
| 20260502005404 | 54 | 49 | 0.0 | 3.0 | 0.03 | 1.49 | 1.46 | 99 | 1016.1 |
| 20260502004504 | 54 | 27 | 1.0 | 5.0 | 0.02 | 1.48 | 1.45 | 99 | 1016.0 |
| 20260502003603 | 54 | 36 | 0.0 | 3.0 | 0.01 | 1.47 | 1.44 | 99 | 1015.9 |
| 20260502002911 | 54 | 43 | 0.0 | 2.0 | 0.01 | 1.47 | 1.44 | 98 | 1015.8 |
| 20260502001803 | 54 | 66 | 1.0 | 4.0 | 0.00 | 1.46 | 1.43 | 98 | 1015.6 |
| 20260502000903 | 54 | 61 | 1.0 | 4.0 | 0.00 | 1.46 | 1.43 | 98 | 1015.1 |
| 20260502000004 | 54 | 73 | 1.0 | 5.0 | 0.02 | 1.46 | 1.43 | 98 | 1014.8 |
| 20260501235403 | 54 | 56 | 2.0 | 5.0 | 0.02 | 1.46 | 1.43 | 98 | 1014.5 |
| 20260501234711 | 54 | 62 | 3.0 | 5.0 | 0.03 | 1.46 | 1.43 | 98 | 1014.2 |
| 20260501233604 | 54 | 70 | 3.0 | 9.0 | 0.05 | 1.46 | 1.43 | 99 | 1013.7 |
| 20260501232703 | 54 | 60 | 3.0 | 10.0 | 0.08 | 1.46 | 1.43 | 99 | 1013.7 |
| 20260501231803 | 54 | 67 | 2.0 | 8.0 | 0.11 | 1.46 | 1.43 | 99 | 1014.0 |
| 20260501230904 | 54 | 73 | 2.0 | 5.0 | 0.14 | 1.46 | 1.43 | 99 | 1013.8 |
| 20260501230004 | 54 | 71 | 2.0 | 5.0 | 0.14 | 1.44 | 1.41 | 99 | 1014.2 |
| 20260501225403 | 54 | 65 | 2.0 | 5.0 | 0.14 | 1.44 | 1.41 | 99 | 1014.4 |
| 20260501224503 | 54 | 66 | 2.0 | 5.0 | 0.13 | 1.43 | 1.40 | 99 | 1015.2 |
| 20260501223604 | 54 | 59 | 2.0 | 5.0 | 0.13 | 1.41 | 1.38 | 98 | 1014.8 |
| 20260501222703 | 54 | 58 | 2.0 | 5.0 | 0.12 | 1.38 | 1.35 | 98 | 1015.0 |
| 20260501221804 | 54 | 61 | 2.0 | 5.0 | 0.09 | 1.35 | 1.32 | 98 | 1015.0 |
| 20260501220903 | 54 | 60 | 2.0 | 5.0 | 0.06 | 1.32 | 1.28 | 98 | 1014.9 |
| 20260501220211 | 54 | 52 | 1.0 | 5.0 | 0.06 | 1.30 | 1.27 | 98 | 1014.7 |
| 20260501215404 | 54 | 65 | 2.0 | 5.0 | 0.07 | 1.30 | 1.27 | 98 | 1014.1 |
| 20260501214503 | 54 | 64 | 2.0 | 5.0 | 0.08 | 1.30 | 1.26 | 98 | 1014.0 |
| 20260501213603 | 54 | 60 | 3.0 | 6.0 | 0.09 | 1.28 | 1.25 | 98 | 1014.0 |
| 20260501212703 | 54 | 62 | 2.0 | 6.0 | 0.08 | 1.26 | 1.23 | 98 | 1013.6 |
| 20260501211803 | 55 | 67 | 2.0 | 8.0 | 0.07 | 1.26 | 1.23 | 98 | 1014.2 |
| 20260501210903 | 55 | 61 | 3.0 | 11.0 | 0.07 | 1.26 | 1.23 | 98 | 1013.7 |
| 20260501210211 | 55 | 59 | 3.0 | 9.0 | 0.06 | 1.25 | 1.22 | 98 | 1013.7 |
| 20260501205403 | 56 | 67 | 2.0 | 7.0 | 0.04 | 1.23 | 1.20 | 98 | 1013.7 |
| 20260501204503 | 57 | 76 | 2.0 | 5.0 | 0.02 | 1.21 | 1.18 | 98 | 1013.8 |
| 20260501203603 | 57 | 50 | 1.0 | 6.0 | 0.00 | 1.19 | 1.16 | 97 | 1013.8 |
| 20260501202703 | 57 | 63 | 1.0 | 6.0 | 0.00 | 1.19 | 1.16 | 96 | 1014.5 |
| 20260501201804 | 57 | 65 | 2.0 | 7.0 | 0.00 | 1.19 | 1.16 | 96 | 1013.6 |
| 20260501200903 | 57 | 58 | 2.0 | 6.0 | 0.00 | 1.19 | 1.16 | 96 | 1013.0 |
| 20260501200004 | 57 | 61 | 2.0 | 6.0 | 0.00 | 1.19 | 1.16 | 96 | 1013.2 |
| 20260501195403 | 57 | 62 | 1.0 | 4.0 | 0.00 | 1.19 | 1.16 | 96 | 1013.1 |
| 20260501194503 | 57 | 69 | 1.0 | 5.0 | 0.00 | 1.19 | 1.16 | 96 | 1012.7 |
| 20260501193603 | 57 | 62 | 2.0 | 9.0 | 0.00 | 1.20 | 1.16 | 96 | 1012.5 |
| 20260501192703 | 57 | 65 | 2.0 | 7.0 | 0.00 | 1.20 | 1.16 | 96 | 1011.9 |
| 20260501191803 | 57 | 61 | 3.0 | 11.0 | 0.00 | 1.21 | 1.16 | 96 | 1011.8 |
| 20260501190903 | 57 | 60 | 3.0 | 8.0 | 0.00 | 1.23 | 1.16 | 96 | 1011.8 |
| 20260501190004 | 56 | 56 | 3.0 | 11.0 | 0.00 | 1.24 | 1.16 | 97 | 1011.3 |
| 20260501185404 | 57 | 60 | 4.0 | 11.0 | 0.00 | 1.24 | 1.16 | 97 | 1011.4 |
| 20260501184504 | 56 | 61 | 3.0 | 11.0 | 0.00 | 1.24 | 1.15 | 98 | 1011.4 |
| 20260501183604 | 56 | 57 | 3.0 | 11.0 | 0.00 | 1.24 | 1.15 | 98 | 1012.4 |
| 20260501182704 | 57 | 60 | 2.0 | 6.0 | 0.00 | 1.24 | 1.15 | 98 | 1013.3 |
| 20260501181803 | 56 | 59 | 3.0 | 13.0 | 0.01 | 1.26 | 1.15 | 98 | 1013.6 |
| 20260501180903 | 56 | 65 | 3.0 | 11.0 | 0.01 | 1.26 | 1.15 | 98 | 1013.9 |
| 20260501180004 | 56 | 60 | 3.0 | 11.0 | 0.02 | 1.28 | 1.15 | 98 | 1014.4 |
| 20260501175403 | 56 | 66 | 3.0 | 10.0 | 0.02 | 1.32 | 1.15 | 98 | 1014.5 |
| 20260501174504 | 57 | 63 | 2.0 | 6.0 | 0.03 | 1.45 | 1.15 | 98 | 1014.8 |
| 20260501173603 | 57 | 70 | 3.0 | 11.0 | 0.04 | 1.73 | 1.15 | 98 | 1015.0 |
| 20260501172703 | 57 | 65 | 3.0 | 9.0 | 0.05 | 1.78 | 1.15 | 98 | 1015.1 |
| 20260501171803 | 57 | 61 | 2.0 | 7.0 | 0.06 | 1.90 | 1.15 | 99 | 1014.9 |
| 20260501170904 | 57 | 70 | 2.0 | 6.0 | 0.07 | 1.96 | 1.14 | 99 | 1015.1 |
| 20260501170004 | 57 | 75 | 2.0 | 8.0 | 0.08 | 1.98 | 1.14 | 99 | 1015.4 |
| 20260501165404 | 57 | 81 | 2.0 | 7.0 | 0.07 | 1.97 | 1.13 | 99 | 1015.7 |
| 20260501164504 | 57 | 62 | 2.0 | 7.0 | 0.06 | 1.96 | 1.12 | 99 | 1016.0 |
| 20260501163603 | 57 | 68 | 1.0 | 5.0 | 0.06 | 1.95 | 1.11 | 99 | 1016.2 |
| 20260501162703 | 57 | 66 | 2.0 | 5.0 | 0.06 | 1.94 | 1.10 | 99 | 1016.4 |
| 20260501161804 | 58 | 58 | 1.0 | 4.0 | 0.06 | 1.92 | 1.09 | 99 | 1016.4 |
| 20260501160903 | 57 | 79 | 2.0 | 6.0 | 0.06 | 1.91 | 1.07 | 99 | 1016.3 |
| 20260501160004 | 58 | 55 | 1.0 | 5.0 | 0.06 | 1.90 | 1.06 | 99 | 1015.7 |
| 20260501155404 | 58 | 69 | 1.0 | 6.0 | 0.08 | 1.91 | 1.06 | 99 | 1015.2 |
| 20260501154503 | 57 | 62 | 2.0 | 6.0 | 0.09 | 1.90 | 1.06 | 99 | 1015.3 |
| 20260501153603 | 57 | 65 | 2.0 | 6.0 | 0.09 | 1.90 | 1.05 | 99 | 1014.9 |
| 20260501152703 | 57 | 75 | 1.0 | 5.0 | 0.10 | 1.89 | 1.04 | 99 | 1015.6 |
| 20260501152011 | 57 | 71 | 1.0 | 5.0 | 0.12 | 1.89 | 1.04 | 99 | 1015.5 |
| 20260501150903 | 57 | 71 | 1.0 | 4.0 | 0.14 | 1.87 | 1.02 | 99 | 1015.8 |
| 20260501150004 | 57 | 69 | 1.0 | 4.0 | 0.15 | 1.85 | 1.00 | 99 | 1015.8 |
| 20260501145404 | 57 | 73 | 1.0 | 4.0 | 0.16 | 1.84 | 0.99 | 99 | 1016.2 |
| 20260501144503 | 57 | 61 | 0.0 | 4.0 | 0.15 | 1.82 | 0.97 | 99 | 1015.8 |